Weather History for KJGG - May, 2013

Change the Weather History Date:

Saturday, May 25, 2013

  Actual Average Record
Temperature  
Mean Temperature 58 °F -  
Max Temperature 69 °F 79 °F 93 °F (2004)
Min Temperature 46 °F 57 °F 40 °F (1956)
Degree Days  
Heating Degree Days 8    
Growing Degree Days 8 (Base 50)    
Moisture  
Dew Point 39 °F    
Average Humidity 55    
Maximum Humidity 88    
Minimum Humidity 31    
Precipitation  
Precipitation 0.00 in - - ()
Sea Level Pressure  
Sea Level Pressure 30.17 in    
Wind  
Wind Speed 11 mph (NW)    
Max Wind Speed 17 mph    
Max Gust Speed 28 mph    
Visibility 10 miles    
Events      
Averages and records for this station are not official NWS values.
T = Trace of Precipitation, MM = Missing Value Source: NWS Daily Summary

Daily Weather History Graph

Daily Weather History Graph

Search for Another Location

Airport or City:

Trip Planner

Search our weather history database for the weather conditions in past years. The results will help you decide how hot, cold, wet, or windy it might be!

Date:

Astronomy

May. 25, 2013 Rise Set
Actual Time 5:51 AM EDT 8:16 PM EDT
Civil Twilight 5:21 AM EDT 8:46 PM EDT
Nautical Twilight 4:44 AM EDT 9:23 PM EDT
Astronomical Twilight 4:03 AM EDT 10:04 PM EDT
Moon 9:02 PM EDT (5/25) 6:15 AM EDT (5/25)
Length of Visible Light 15h 25m
Length of Day
14h 25m
Full, 100% of the Moon is Illuminated
May 25
Full
May 31
Last Quarter
Jun 8
New
Jun 16
First Quarter
Jun 23
Full

Hourly Weather History & Observations

Time (EDT) Temp. Windchill Dew Point Humidity Pressure Visibility Wind Dir Wind Speed Gust Speed Precip Events Conditions
12:15 AM 51.8 °F - 37.4 °F 58% 30.16 in 10.0 mi North 9.2 mph 16.1 mph N/A   Clear
12:35 AM 51.8 °F - 37.4 °F 58% 30.16 in 10.0 mi North 9.2 mph 17.3 mph N/A   Clear
12:55 AM 51.8 °F - 37.4 °F 58% 30.16 in 10.0 mi NNW 16.1 mph 21.9 mph N/A   Clear
1:15 AM 51.8 °F - 35.6 °F 54% 30.16 in 10.0 mi NNW 15.0 mph 23.0 mph N/A   Clear
1:35 AM 50.0 °F - 35.6 °F 58% 30.16 in 10.0 mi NNW 13.8 mph 20.7 mph N/A   Clear
1:55 AM 48.2 °F - 35.6 °F 62% 30.16 in 10.0 mi NNW 13.8 mph 19.6 mph N/A   Clear
2:15 AM 48.2 °F - 35.6 °F 62% 30.16 in 10.0 mi NNW 11.5 mph 16.1 mph N/A   Clear
2:35 AM 48.2 °F - 33.8 °F 58% 30.16 in 10.0 mi NNW 10.4 mph 20.7 mph N/A   Clear
2:55 AM 48.2 °F - 35.6 °F 62% 30.16 in 10.0 mi NNW 9.2 mph 16.1 mph N/A   Clear
3:15 AM 46.4 °F 41.9 °F 35.6 °F 66% 30.16 in 10.0 mi NNW 9.2 mph 16.1 mph N/A   Clear
3:35 AM 46.4 °F 41.9 °F 35.6 °F 66% 30.16 in 10.0 mi NNW 9.2 mph 16.1 mph N/A   Clear
3:55 AM 46.4 °F 41.5 °F 35.6 °F 66% 30.17 in 10.0 mi NW 10.4 mph 16.1 mph N/A   Clear
4:15 AM 46.4 °F 42.9 °F 35.6 °F 66% 30.18 in 10.0 mi NW 6.9 mph - N/A   Clear
4:35 AM 46.4 °F 41.5 °F 35.6 °F 66% 30.19 in 10.0 mi NW 10.4 mph - N/A   Clear
4:55 AM 46.4 °F 41.9 °F 35.6 °F 66% 30.19 in 10.0 mi NW 9.2 mph 17.3 mph N/A   Clear
5:15 AM 46.4 °F 41.5 °F 33.8 °F 62% 30.19 in 10.0 mi NW 10.4 mph 16.1 mph N/A   Clear
5:35 AM 46.4 °F 41.5 °F 33.8 °F 62% 30.19 in 10.0 mi NNW 10.4 mph 18.4 mph N/A   Clear
5:55 AM 46.4 °F 41.5 °F 33.8 °F 62% 30.20 in 10.0 mi NW 10.4 mph 16.1 mph N/A   Clear
6:15 AM 46.4 °F 40.7 °F 33.8 °F 62% 30.21 in 10.0 mi NNW 12.7 mph 18.4 mph N/A   Clear
6:35 AM 46.4 °F 40.7 °F 33.8 °F 62% 30.21 in 10.0 mi NW 12.7 mph 18.4 mph N/A   Clear
6:55 AM 46.4 °F 40.4 °F 33.8 °F 62% 30.21 in 10.0 mi NNW 13.8 mph 20.7 mph N/A   Clear
7:15 AM 46.4 °F 40.4 °F 35.6 °F 66% 30.21 in 10.0 mi NW 13.8 mph 20.7 mph N/A   Clear
7:35 AM 46.4 °F 40.4 °F 35.6 °F 66% 30.22 in - NW 13.8 mph 20.7 mph N/A   Clear
7:55 AM 48.2 °F - 35.6 °F 62% 30.21 in 10.0 mi NW 13.8 mph 20.7 mph N/A   Clear
8:15 AM 48.2 °F - 35.6 °F 62% 30.22 in 10.0 mi NNW 10.4 mph 21.9 mph N/A   Clear
8:35 AM 50.0 °F - 35.6 °F 58% 30.22 in 10.0 mi NW 12.7 mph 20.7 mph N/A   Clear
8:55 AM 51.8 °F - 37.4 °F 58% 30.22 in 10.0 mi NNW 10.4 mph - N/A   Clear
9:15 AM 53.6 °F - 37.4 °F 54% 30.21 in 10.0 mi NW 15.0 mph 20.7 mph N/A   Clear
9:35 AM 53.6 °F - 37.4 °F 54% 30.20 in 10.0 mi NNW 13.8 mph 23.0 mph N/A   Clear
9:55 AM 55.4 °F - 37.4 °F 51% 30.19 in 10.0 mi NNW 13.8 mph 19.6 mph N/A   Clear
10:15 AM 55.4 °F - 37.4 °F 51% 30.18 in 10.0 mi NNW 11.5 mph 18.4 mph N/A   Clear
10:35 AM 57.2 °F - 37.4 °F 48% 30.18 in 10.0 mi NNW 9.2 mph 19.6 mph N/A   Clear
10:55 AM 60.8 °F - 37.4 °F 42% 30.18 in 10.0 mi WNW 12.7 mph 19.6 mph N/A   Clear
11:15 AM 60.8 °F - 39.2 °F 45% 30.18 in 10.0 mi NW 12.7 mph 19.6 mph N/A   Clear
11:35 AM 60.8 °F - 37.4 °F 42% 30.18 in 10.0 mi NW 12.7 mph 25.3 mph N/A   Clear
11:55 AM 62.6 °F - 37.4 °F 39% 30.18 in 10.0 mi NW 11.5 mph 19.6 mph N/A   Clear
12:15 PM 62.6 °F - 37.4 °F 39% 30.17 in 10.0 mi WNW 13.8 mph 18.4 mph N/A   Clear
12:35 PM 64.4 °F - 37.4 °F 37% 30.17 in 10.0 mi NW 16.1 mph 24.2 mph N/A   Clear
12:55 PM 64.4 °F - 37.4 °F 37% 30.17 in 10.0 mi NW 10.4 mph 21.9 mph N/A   Clear
1:15 PM 64.4 °F - 39.2 °F 40% 30.16 in 10.0 mi WNW 15.0 mph 19.6 mph N/A   Clear
1:35 PM 64.4 °F - 37.4 °F 37% 30.16 in 10.0 mi WNW 13.8 mph 23.0 mph N/A   Clear
1:55 PM 64.4 °F - 37.4 °F 37% 30.15 in 10.0 mi WNW 12.7 mph - N/A   Clear
2:15 PM 66.2 °F - 37.4 °F 35% 30.14 in 10.0 mi WNW 13.8 mph 24.2 mph N/A   Clear
2:35 PM 66.2 °F - 39.2 °F 37% 30.14 in 10.0 mi NW 13.8 mph 20.7 mph N/A   Clear
2:55 PM 66.2 °F - 39.2 °F 37% 30.13 in 10.0 mi WNW 12.7 mph 23.0 mph N/A   Clear
3:15 PM 66.2 °F - 39.2 °F 37% 30.13 in 10.0 mi WNW 11.5 mph 17.3 mph N/A   Clear
3:35 PM 66.2 °F - 39.2 °F 37% 30.13 in 10.0 mi West 13.8 mph 19.6 mph N/A   Clear
3:55 PM 68.0 °F - 39.2 °F 35% 30.12 in 10.0 mi NW 17.3 mph 27.6 mph N/A   Clear
4:15 PM 69.8 °F - 39.2 °F 33% 30.13 in 10.0 mi WNW 16.1 mph 23.0 mph N/A   Clear
4:35 PM 69.8 °F - 37.4 °F 31% 30.12 in 10.0 mi NW 17.3 mph 26.5 mph N/A   Clear
4:55 PM 69.8 °F - 37.4 °F 31% 30.12 in 10.0 mi NW 13.8 mph 24.2 mph N/A   Clear
5:15 PM 69.8 °F - 37.4 °F 31% 30.12 in 10.0 mi WNW 11.5 mph 19.6 mph N/A   Clear
5:35 PM 69.8 °F - 39.2 °F 33% 30.12 in 10.0 mi West 11.5 mph 20.7 mph N/A   Clear
5:55 PM 69.8 °F - 39.2 °F 33% 30.12 in 10.0 mi West 8.1 mph - N/A   Clear
6:15 PM 69.8 °F - 39.2 °F 33% 30.12 in 10.0 mi West 8.1 mph - N/A   Clear
6:35 PM 68.0 °F - 39.2 °F 35% 30.11 in 10.0 mi WNW 11.5 mph 20.7 mph N/A   Clear
6:55 PM 68.0 °F - 39.2 °F 35% 30.11 in 10.0 mi West 10.4 mph - N/A   Clear
7:15 PM 68.0 °F - 41.0 °F 37% 30.12 in 10.0 mi WNW 4.6 mph - N/A   Clear
7:35 PM 66.2 °F - 42.8 °F 43% 30.13 in 10.0 mi WNW 3.5 mph - N/A   Clear
7:55 PM 64.4 °F - 44.6 °F 49% 30.14 in 10.0 mi West 4.6 mph - N/A   Clear
8:15 PM 60.8 °F - 46.4 °F 59% 30.14 in 10.0 mi WNW 3.5 mph - N/A   Clear
8:35 PM 57.2 °F - 46.4 °F 67% 30.15 in 10.0 mi NE 3.5 mph - N/A   Clear
8:55 PM 55.4 °F - 48.2 °F 77% 30.15 in 10.0 mi Calm Calm - N/A   Clear
9:15 PM 55.4 °F - 48.2 °F 77% 30.15 in 10.0 mi NNW 3.5 mph - N/A   Clear
9:35 PM 53.6 °F - 48.2 °F 82% 30.16 in 10.0 mi Calm Calm - N/A   Clear
9:55 PM 53.6 °F - 48.2 °F 82% 30.17 in 10.0 mi Calm Calm - N/A   Clear
10:15 PM 53.6 °F - 48.2 °F 82% 30.17 in 10.0 mi Calm Calm - N/A   Clear
10:35 PM 51.8 °F - 48.2 °F 88% 30.18 in 10.0 mi Calm Calm - N/A   Clear
10:55 PM 51.8 °F - 46.4 °F 82% 30.18 in 10.0 mi Calm Calm - N/A   Clear
11:15 PM 51.8 °F - 48.2 °F 88% 30.18 in 10.0 mi Calm Calm - N/A   Clear
11:35 PM 51.8 °F - 48.2 °F 88% 30.19 in 10.0 mi Calm Calm - N/A   Clear
11:55 PM 50.0 °F - 46.4 °F 87% 30.19 in 10.0 mi WSW 3.5 mph - N/A   Clear